Sussex, NJ

9:12 AM EDT on July 20, 2017 (GMT -0400)
Sussex

Weather History for KFWN - November, 2013

Change the Weather History Date:

Friday, November 15, 2013

  Actual Average Record
Temperature  
Mean Temperature 40 °F -  
Max Temperature 55 °F 49 °F 70 °F (1973)
Min Temperature 24 °F 29 °F 14 °F (1986)
Degree Days  
Heating Degree Days 26    
Moisture  
Dew Point 20 °F    
Average Humidity 56    
Maximum Humidity 84    
Minimum Humidity 23    
Precipitation  
Precipitation 0.00 in - - ()
Sea Level Pressure  
Sea Level Pressure 30.20 in    
Wind  
Wind Speed 2 mph (SW)    
Max Wind Speed 8 mph    
Max Gust Speed -    
Visibility 10 miles    
Events      
Averages and records for this station are not official NWS values.
T = Trace of Precipitation, MM = Missing Value Source: NWS Daily Summary

Daily Weather History Graph

Daily Weather History Graph

Search for Another Location

Airport or City:

Trip Planner

Search our weather history database for the weather conditions in past years. The results will help you decide how hot, cold, wet, or windy it might be!

Date:

Astronomy

Nov. 15, 2013 Rise Set
Actual Time 6:46 AM EST 4:39 PM EST
Civil Twilight 6:17 AM EST 5:08 PM EST
Nautical Twilight 5:43 AM EST 5:42 PM EST
Astronomical Twilight 5:11 AM EST 6:14 PM EST
Moon 3:35 PM EST (11/15) 4:39 AM EST (11/15)
Length of Visible Light 10h 51m
Length of Day
9h 52m
Waxing Gibbous, 96% of the Moon is Illuminated
Nov 15
Waxing Gibbous
Nov 17
Full
Nov 25
Last Quarter
Dec 2
New
Dec 9
First Quarter

Hourly Weather History & Observations

Time (EST) Temp. Windchill Dew Point Humidity Pressure Visibility Wind Dir Wind Speed Gust Speed Precip Events Conditions
12:53 AM 27.0 °F - 17.1 °F 66% 30.18 in 10.0 mi Calm Calm - N/A   Clear
1:53 AM 26.1 °F - 17.1 °F 69% 30.19 in 10.0 mi Calm Calm - N/A   Clear
2:53 AM 25.0 °F - 19.0 °F 78% 30.19 in 10.0 mi Calm Calm - N/A   Clear
3:53 AM 26.1 °F - 17.1 °F 69% 30.20 in 10.0 mi Calm Calm - N/A   Clear
4:53 AM 25.0 °F - 17.1 °F 72% 30.20 in 10.0 mi Calm Calm - N/A   Clear
5:53 AM 24.1 °F - 19.9 °F 84% 30.21 in 10.0 mi Calm Calm - N/A   Clear
6:53 AM 24.1 °F 19.7 °F 18.0 °F 77% 30.22 in 10.0 mi SW 3.5 mph - N/A   Clear
7:53 AM 26.1 °F 21.9 °F 19.9 °F 78% 30.23 in 10.0 mi SW 3.5 mph - N/A   Clear
8:53 AM 32.0 °F - 24.1 °F 73% 30.24 in 10.0 mi Calm Calm - N/A   Clear
9:53 AM 42.1 °F 37.7 °F 23.0 °F 47% 30.24 in 10.0 mi SSW 6.9 mph - 0.00 in   Clear
10:53 AM 48.9 °F - 21.9 °F 35% 30.22 in 10.0 mi SW 5.8 mph - N/A   Clear
11:53 AM 53.1 °F - 21.9 °F 30% 30.20 in 10.0 mi SSW 5.8 mph - N/A   Clear
12:53 PM 55.0 °F - 17.1 °F 23% 30.16 in 10.0 mi WSW 8.1 mph - 0.00 in   Clear
1:53 PM 55.0 °F - 19.0 °F 24% 30.17 in 10.0 mi SSW 5.8 mph - N/A   Clear
2:53 PM 55.0 °F - 19.0 °F 24% 30.15 in 10.0 mi SW 8.1 mph - 0.00 in   Clear
3:53 PM 53.1 °F - 18.0 °F 25% 30.17 in 10.0 mi SW 8.1 mph - N/A   Clear
4:53 PM 46.0 °F - 19.9 °F 35% 30.17 in 10.0 mi Calm Calm - 0.00 in   Clear
5:53 PM 42.1 °F - 21.0 °F 43% 30.19 in 10.0 mi Calm Calm - N/A   Clear
6:53 PM 35.1 °F - 21.9 °F 59% 30.19 in 10.0 mi Calm Calm - N/A   Clear
7:53 PM 35.1 °F - 23.0 °F 61% 30.21 in 10.0 mi Calm Calm - N/A   Clear
8:53 PM 34.0 °F - 21.9 °F 61% 30.22 in 10.0 mi Calm Calm - N/A   Clear
9:53 PM 30.9 °F - 23.0 °F 72% 30.22 in 10.0 mi Calm Calm - N/A   Clear
10:53 PM 30.0 °F - 23.0 °F 75% 30.22 in 10.0 mi Calm Calm - N/A   Clear
11:53 PM 32.0 °F 28.7 °F 25.0 °F 75% 30.24 in 10.0 mi WSW 3.5 mph - N/A   Scattered Clouds